Zurück zum Katalog

FENGYUN 1C DEB

AktivPO
NORAD 33640·DEBRIS·🇨🇳 China

Gestartet May 10, 1999 von Taiyuan Satellite Launch Center

Loading…

Nächste Überflüge (nächste 24 Stunden)

TLE

AktuellSource: Space-Track

Epoche: Sep 12, 2026, 08:29 UTC

1 33640U 99025DDZ 26255.35400125  .00001231  00000-0  33590-3 0  9991
2 33640  98.8695 215.3923 0090457  60.9863 300.0355 14.46888148962987

Verfolge FENGYUN 1C DEB in Echtzeit mit AllMySat

Download on the App Store